Spokane, WA

11:30 PM PDT on July 29, 2016 (GMT -0700)
Spokane International

Weather History for KGEG - January, 2014

Change the Weather History Date:

Monday, January 27, 2014

  Actual Average Record
Temperature  
Mean Temperature 26 °F 31 °F  
Max Temperature 28 °F 36 °F 54 °F (1899)
Min Temperature 23 °F 26 °F -18 °F (1957)
Degree Days  
Heating Degree Days 39 34  
Month to date heating degree days 932 963  
Since 1 July heating degree days 3800 3797  
Cooling Degree Days 0 0  
Month to date cooling degree days 0 0  
Year to date cooling degree days 0 0  
Moisture  
Dew Point 25 °F    
Average Humidity 93    
Maximum Humidity 100    
Minimum Humidity 85    
Precipitation  
Precipitation T in 0.05 in 0.68 in (1954)
Month to date precipitation 0.59 1.60  
Year to date precipitation 0.59 1.60  
Snow  
Snow T in 0.30 in 8.10 in (1954)
Month to date snowfall 3.0 10.3  
Since 1 July snowfall 9.8 32.4  
Snow Depth 0.00 in    
Sea Level Pressure  
Sea Level Pressure 30.36 in    
Wind  
Wind Speed 2 mph (West)    
Max Wind Speed 8 mph    
Max Gust Speed 9 mph    
Visibility 3 miles    
Events Fog , Snow    
T = Trace of Precipitation, MM = Missing Value Source: NWS Daily Summary

Daily Weather History Graph

Daily Weather History Graph

Search for Another Location

Airport or City:

Trip Planner

Search our weather history database for the weather conditions in past years. The results will help you decide how hot, cold, wet, or windy it might be!

Date:

Astronomy

Jan. 27, 2014 Rise Set
Actual Time 7:22 AM PST 4:43 PM PST
Civil Twilight 6:49 AM PST 5:17 PM PST
Nautical Twilight 6:11 AM PST 5:54 PM PST
Astronomical Twilight 5:35 AM PST 6:30 PM PST
Moon 4:12 AM PST (1/27) 1:31 PM PST (1/27)
Length of Visible Light 10h 28m
Length of Day
9h 21m
Waning Crescent, 14% of the Moon is Illuminated
Jan 27
Waning Crescent
Jan 30
New
Feb 6
First Quarter
Feb 14
Full
Feb 22
Last Quarter

Hourly Weather History & Observations

Time (PST) Temp. Windchill Dew Point Humidity Pressure Visibility Wind Dir Wind Speed Gust Speed Precip Events Conditions
12:23 AM 25.0 °F - 23.0 °F 92% 30.21 in 10.0 mi Calm Calm - N/A   Scattered Clouds
12:53 AM 24.1 °F 19.7 °F 21.9 °F 91% 30.30 in 10.0 mi West 3.5 mph - N/A   Mostly Cloudy
1:40 AM 23.0 °F 15.8 °F 21.0 °F 92% 30.22 in 6.0 mi West 5.8 mph - N/A   Mostly Cloudy
1:43 AM 23.0 °F 14.7 °F 21.0 °F 92% 30.22 in 0.5 mi West 6.9 mph - N/A   Mostly Cloudy
1:53 AM 24.1 °F 18.2 °F 23.0 °F 96% 30.30 in 0.5 mi West 4.6 mph - N/A   Mostly Cloudy
2:32 AM 25.0 °F 18.1 °F 24.1 °F 96% 30.23 in 0.5 mi WNW 5.8 mph - N/A Fog Light Freezing Fog
2:53 AM 25.0 °F 20.7 °F 24.1 °F 96% 30.31 in 0.5 mi NW 3.5 mph - N/A Fog Light Freezing Fog
3:37 AM 25.0 °F 19.3 °F 23.0 °F 92% 30.23 in 0.2 mi West 4.6 mph - N/A Fog Light Freezing Fog
3:53 AM 25.0 °F 19.3 °F 24.1 °F 96% 30.32 in 0.2 mi West 4.6 mph - N/A Fog Light Freezing Fog
4:53 AM 25.0 °F 19.3 °F 24.1 °F 96% 30.33 in 0.2 mi WNW 4.6 mph - N/A   Overcast
5:53 AM 26.1 °F 19.4 °F 24.1 °F 92% 30.33 in 0.2 mi West 5.8 mph - N/A   Overcast
6:53 AM 26.1 °F 18.4 °F 24.1 °F 92% 30.36 in 0.2 mi West 6.9 mph - 0.00 in Snow Light Snow
7:53 AM 26.1 °F - 25.0 °F 96% 30.38 in 0.2 mi Calm Calm - 0.00 in   Overcast
8:53 AM 26.1 °F - 25.0 °F 96% 30.40 in 0.2 mi Calm Calm - N/A   Overcast
9:53 AM 26.1 °F - 25.0 °F 96% 30.42 in 0.2 mi Calm Calm - 0.00 in   Overcast
10:14 AM 27.0 °F - 26.1 °F 96% 30.33 in 0.5 mi Calm Calm - N/A   Overcast
10:53 AM 27.0 °F - 25.0 °F 92% 30.42 in 0.5 mi Calm Calm - 0.00 in   Overcast
11:03 AM 27.0 °F - 25.0 °F 92% 30.33 in 1.0 mi Calm Calm - N/A   Overcast
11:53 AM 27.0 °F - 26.1 °F 96% 30.40 in 1.0 mi Calm Calm - N/A   Overcast
12:32 PM 27.0 °F - 26.1 °F 96% 30.33 in 1.0 mi Calm Calm - N/A   Overcast
12:44 PM 27.0 °F 21.6 °F 26.1 °F 96% 30.33 in 2.5 mi West 4.6 mph - N/A   Overcast
12:53 PM 28.0 °F 21.7 °F 26.1 °F 92% 30.42 in 5.0 mi West 5.8 mph - N/A   Overcast
1:17 PM 28.0 °F 24.2 °F 26.1 °F 92% 30.33 in 1.5 mi West 3.5 mph - 0.00 in Snow Light Snow
1:53 PM 28.0 °F 24.2 °F 26.1 °F 92% 30.43 in 6.0 mi WSW 3.5 mph - 0.00 in   Overcast
2:53 PM 28.0 °F 22.8 °F 26.1 °F 92% 30.43 in 10.0 mi WSW 4.6 mph - N/A   Overcast
3:53 PM 28.0 °F 21.7 °F 26.1 °F 92% 30.44 in 10.0 mi West 5.8 mph - N/A   Overcast
4:53 PM 28.0 °F - 26.1 °F 92% 30.41 in 10.0 mi Calm Calm - N/A   Overcast
5:53 PM 28.0 °F - 26.1 °F 92% 30.42 in 10.0 mi Calm Calm - N/A   Overcast
6:53 PM 28.0 °F - 25.0 °F 88% 30.43 in 10.0 mi Calm Calm - N/A   Overcast
7:53 PM 28.0 °F - 26.1 °F 92% 30.43 in 7.0 mi Calm Calm - N/A   Overcast
8:53 PM 28.0 °F - 25.0 °F 88% 30.43 in 5.0 mi Calm Calm - 0.00 in   Overcast
9:02 PM 28.0 °F 24.2 °F 25.0 °F 88% 30.35 in 1.0 mi NE 3.5 mph - N/A   Overcast
9:37 PM 27.0 °F - 26.1 °F 96% 30.35 in 0.5 mi Calm Calm - N/A   Overcast
9:53 PM 27.0 °F - 26.1 °F 96% 30.43 in 0.5 mi Calm Calm - N/A   Overcast
10:53 PM 27.0 °F - 26.1 °F 96% 30.42 in 0.5 mi Calm Calm - N/A   Overcast
11:53 PM 27.0 °F - 25.0 °F 92% 30.42 in 0.5 mi Calm Calm - N/A   Overcast